{"data":{"norad_id":67325,"epoch":"2026-09-19T04:33:20.215584Z","epoch_age_seconds":188612,"freshness":"STALE","line1":"1 67325U 26002W   26262.18981731  .00011285  00000+0  41887-3 0  9996","line2":"2 67325  42.9987 312.3527 0000852 181.5035 178.5814 15.27589204 40837","mean_motion":15.27589204,"eccentricity":8.52e-5,"inclination_deg":42.9987,"raan_deg":312.3527,"arg_perigee_deg":181.5035,"mean_anomaly_deg":178.5814,"bstar":0.00041887,"rev_number":4083,"period_min":94.266180739518,"perigee_km":482.43696538363,"apogee_km":483.60610679818,"semimajor_km":6861.1585360909,"source":"CELESTRAK","updated_at":"2026-09-20T09:00:43.507807Z"}}